Printer-friendly version

IAU Minor Planet Center

Minor Planet Center

MPEC 2007-P41 : 2002 SV

The following Minor Planet Electronic Circular may be linked-to from your own Web pages, but must not otherwise be redistributed electronically.


Read MPEC 2007-P40 Read MPEC 2007-P42


M.P.E.C. 2007-P41                                Issued 2007 Aug. 13, 00:02 UT

     The Minor Planet Electronic Circulars contain information on unusual
         minor planets and routine data on comets.  They are published
   on behalf of Commission 20 of the International Astronomical Union by the
          Minor Planet Center, Smithsonian Astrophysical Observatory,
                          Cambridge, MA 02138, U.S.A.

             Prepared using the Tamkin Foundation Computer Network

                              MPC@CFA.HARVARD.EDU
          URL http://www.cfa.harvard.edu/iau/mpc.html  ISSN 1523-6714

                                    2002 SV

                           Revision to MPEC 2002-S43

Additional Observations:
     K02S00V  C2007 08 11.88203 03 56 22.13 -76 48 40.3          19.3 R EP041D21
     K02S00V  C2007 08 11.88652 03 56 19.02 -76 48 40.0          19.2 R EP041D21
     K02S00V  C2007 08 11.89029 03 56 16.26 -76 48 39.0          19.1 R EP041D21
     K02S00V  C2007 08 12.88581 03 45 03.37 -76 43 39.2          18.3 R EP041D21
     K02S00V  C2007 08 12.88933 03 45 00.88 -76 43 38.3          18.8 R EP041D21
     K02S00V  C2007 08 12.89284 03 44 57.83 -76 43 37.5          19.2 R EP041D21

Observer details:
D21 Shenton Park.  Observers P. Luckas, P. R. Holvorcem, M. Schwartz.
    Measurer P. R. Holvorcem.  0.35-m f/9.4 Schmidt-Cassegrain + CCD.

First and last observations above in comparison with prediction:
Residuals in seconds of arc (or two decimals in degrees), reference and Delta-T
070811 D21 0.15- 0.46+    070812 D21 0.13- 0.48+    MPO 62407   -0.091 day

Orbital elements:
2002 SV                                                  Earth MOID = 0.0930 AU
Epoch 2007 Oct. 27.0 TT = JDT 2454400.5                 MPC
M  43.44775              (2000.0)            P               Q
n   0.59281690     Peri.  326.82666     +0.76386185     +0.64434245
a   1.4034243      Node   352.71795     -0.51132164     +0.56963898
e   0.2368001      Incl.   16.77226     -0.39378327     +0.51022959
P   1.66           H   19.9           G   0.15           U   2
Residuals in seconds of arc
020921 608 (4.0+ 13.0+)   020928 046  1.5-  0.1+    021002 118  0.1+  0.1-
020921 608 (4.5+ 13.1+)   020928 163  0.1-  0.1+    021002 118  0.6-  0.4-
020921 608 (3.3+ 13.5+)   020928 163  0.0   0.1-    021002 118  0.1-  0.0
020923 608 (6.5+ 16.1+)   020928 163  1.0-  0.1-    021003 940  0.1+  0.8+
020923 608 (6.4+ 16.3+)   020928 163  0.0   0.8+    021003 940  0.2+  0.9+
020923 608 (7.9+ 17.3+)   020928 941  0.6-  0.5-    021003 940  0.5+  0.4+
020924 734  1.0-  0.2-    020928 941  0.8-  0.0     021003 940  0.2+  0.4+
020924 734  0.4+  0.0     020928 941  0.2-  0.0     021003 940  0.2+  0.5+
020924 734  0.2+  0.4+    020928 941  0.1+  0.2+    021003 940  0.1+  0.4+
020924 734 (4.5+  0.3+)   020928 J95  0.3+  0.8-    021003 940  0.5+  0.5+
020924 734  0.2-  1.3+    020928 J95  0.2-  0.0     021003 940  0.3+  0.3+
020924 734  0.3-  0.2+    020928 J95  0.2-  0.6-    021003 940  0.1+  0.1+
020924 734  0.3-  0.4+    020928 J95  0.2+  0.4-    021003 940  0.4+  0.1+
020924 734  0.9+  0.7+    020928 J95  0.1+  0.3-    021005 670  0.7-  0.8-
020924 734  0.1+  0.0     020929 649  0.5+  0.5-    021005 670  0.3+  0.4+
020924 734  0.2+  0.5+    020929 649  0.3-  0.9+    021005 670  0.6+  0.1-
020924 734  0.3+  0.5+    020929 649  0.3-  0.2+    021006 704  0.4-  0.3-
020924 734  0.3+  0.2+    020929 649  0.5-  1.0+    021006 704  0.4-  0.2+
020924 734  0.8+  0.5+    020929 118  0.5+  0.7-    021006 704  0.3-  0.1-
020924 734  0.2+  1.7+    020929 246  0.0   0.1-    021006 704  0.1+  0.3-
020924 673  1.6+  0.5+    020929 118  1.4+  1.2+    021007 118 (0.5-  2.8+)
020924 673  1.1+  0.0     020929 118  0.4-  0.5-    021007 118 (2.6+  0.2+)
020924 649  0.0   0.0     020929 246  0.4-  0.7-    021007 118 (2.2+  1.3-)
020924 649  0.1-  0.2-    020929 246  0.5-  0.5-    021008 246  0.2-  0.1+
020924 649  0.1+  0.0     020929 246  0.1-  0.3-    021008 246  0.1-  0.4+
020924 644 (1.2+  3.6+)   020929 246  0.0   0.5-    021008 246  0.2-  0.1-
020924 644 (1.0+  3.4+)   020929 246  0.0   0.3-    021008 246  0.1-  0.0
020924 644 (1.2+  3.6+)   020929 118  0.9+  1.1+    021008 246  0.3-  0.2+
020924 946  0.8-  1.2-    020929 246  0.2-  0.4-    021013 118  0.1-  0.8+
020924 946  0.4-  0.6+    020930 246  0.2+  0.2-    021013 118  0.4+  0.0
020924 946  1.3-  0.7+    020930 246  0.4+  0.3-    021013 118  0.3+  0.2+
020924 946  0.1+  0.4+    020930 246  0.4+  0.1-    021013 118  0.2+  0.3-
020924 163  0.1-  0.2-    020930 246  0.3+  0.3-    021014 413  0.1-  0.1-
020924 163  0.0   0.2+    020930 246  0.4-  0.5-    021014 413  0.1-  0.3+
020924 163  0.5-  0.3-    020930 246  0.1-  0.0     021014 413  0.1-  0.2+
020924 163  0.3-  0.4+    021001 246  0.1-  0.3-    021030 696  0.1+  0.1-
020925 413 (2.4+  7.9+)   021001 246  0.1-  0.0     021030 696  0.2-  0.3-
020925 413  0.0   0.7-    021001 246  0.2-  0.4-    021031 448  0.2+  0.3+
020925 413  0.2-  0.9-    021001 246  0.2+  0.2+    021031 448  0.0   0.3+
020927 176  0.8+  0.3+    021001 246  0.3+  0.8+    021031 448  0.1+  0.1+
020927 176  0.6+  0.3+    021001 587  0.1+  0.2-    070811 D21  0.1-  0.0
020927 176  0.5+  0.2+    021001 587  0.2-  0.3+    070811 D21  0.4+  0.3-
020927 176  0.3+  0.2+    021001 587  0.6+  0.2-    070811 D21  0.3+  0.1+
020928 046  1.3-  0.9-    021001 587  0.2-  0.6+    070812 D21  0.1-  0.2+
020928 046  0.5-  1.1+    021001 118  0.1-  0.1-    070812 D21  0.5+  0.2+
020928 046  0.4-  1.3-    021001 118  0.0   0.0     070812 D21  0.7-  0.0
020928 046  0.3-  0.7+    021001 118  0.1+  0.1+

Ephemeris:
2002 SV                  a,e,i = 1.40, 0.24, 17                  q = 1.0711
Date    TT    R. A. (2000) Decl.     Delta      r     Elong.  Phase     V
2007 08 08    04 34.33   -76 53.7    0.203    1.072   101.3    68.0    19.0
2007 08 18    02 39.30   -75 35.5    0.162    1.071   107.1    64.6    18.4
2007 08 28    00 27.78   -66 52.8    0.124    1.076   119.4    54.8    17.5
2007 09 07    23 07.05   -44 11.3    0.0984   1.087   142.1    34.7    16.5
2007 09 17    22 28.50   -12 35.6    0.104    1.104   160.4    17.8    16.1
2007 09 27    22 12.54   +09 41.4    0.140    1.125   149.0    27.3    17.1
2007 10 07    22 08.98   +21 10.2    0.193    1.150   138.2    35.4    18.1
2007 10 17    22 13.41   +27 02.7    0.253    1.179   131.2    39.5    18.8
2007 10 27    22 23.57   +30 14.7    0.318    1.210   126.4    41.4    19.4
2007 11 06    22 37.93   +32 05.1    0.388    1.244   122.5    42.2    20.0
2007 11 16    22 55.62   +33 12.7    0.461    1.278   119.1    42.5    20.4
2007 11 26    23 15.96   +33 59.0    0.538    1.313   115.8    42.6    20.8
2007 12 06    23 38.32   +34 34.2    0.618    1.349   112.5    42.5    21.2
2007 12 16    00 02.35   +35 04.5    0.703    1.384   109.1    42.2    21.5
2007 12 26    00 27.68   +35 33.2    0.792    1.418   105.6    41.9    21.8

Gareth V. Williams           (C) Copyright 2007 MPC           M.P.E.C. 2007-P41

Read MPEC 2007-P40 Read MPEC 2007-P42


Our Web policy. Index to the CBAT/MPC/ICQ pages.


Valid HTML 4.01!